World > North America > United States > Missouri   City of Kansas City, MO
Hourly Weather in Kansas City, MissouriKansas City, Missouri Hourly Weather

Kansas City, MO Hourly Weather

Hourly Weather Kansas City, MissouriHourly Weather in Kansas City, MO
Lat: 39.10N, Lon: 94.58W  ICAO: KMKC
Web Search

Ads allow us to feed your daily addiction for the world's greatest weather information. We're determined to offer quality sponsors, in the least annoying way possible.

Feedback

Kansas City Hourly Weather

36 Hour Weather Scroll   °F Click to change Kansas City hourly weather to Imperial units.Click to change Kansas City hourly weather to Metric units. °C
Currently, Clear, temperature is 65°F18°C, dew point 37.0°F3°C, humidity 35%. Wind direction is WSW at 10 mph16 km/h with visibility of 10 mile(s) mi16 km. Barometric pressure is 29.87 in1012 mb.

Nov 29
3:00 PM

Nov 29
4:00 PM

Nov 29
5:00 PM

Nov 29
6:00 PM

Nov 29
7:00 PM

Nov 29
8:00 PM

Nov 29
9:00 PM

Nov 29
10:00 PM

Nov 29
11:00 PM

Nov 30
MIDNIGHT

Nov 30
1:00 AM

Nov 30
2:00 AM

Nov 30
3:00 AM

Nov 30
4:00 AM

Nov 30
5:00 AM

Nov 30
6:00 AM

Nov 30
7:00 AM

Nov 30
8:00 AM

Nov 30
9:00 AM

Nov 30
10:00 AM

Nov 30
11:00 AM

Nov 30
NOON

Nov 30
1:00 PM

Nov 30
2:00 PM

Nov 30
3:00 PM

Nov 30
4:00 PM

Nov 30
5:00 PM

Nov 30
6:00 PM

Nov 30
7:00 PM

Nov 30
8:00 PM

Nov 30
9:00 PM

Nov 30
10:00 PM

Nov 30
11:00 PM

Dec 01
MIDNIGHT

Dec 01
1:00 AM

Dec 01
2:00 AM
Clear Clear Clear Clear Clear Clear Clear Clear Clear Clear Clear Clear Clear Clear Mostly Cloudy Mostly Cloudy Mostly Cloudy Cloudy Cloudy Cloudy Cloudy Cloudy Cloudy Mostly Cloudy Mostly Cloudy Mostly Cloudy Clear Clear Clear Mostly Cloudy Mostly Cloudy Mostly Cloudy Cloudy Cloudy Cloudy Mostly Cloudy
Clear Clear Clear Clear Clear Clear Clear Clear Clear Clear Clear Clear Clear Clear Mostly Cloudy Mostly Cloudy Mostly Cloudy Cloudy Cloudy Cloudy Cloudy Cloudy Cloudy Mostly Cloudy Mostly Cloudy Mostly Cloudy Clear Clear Clear Mostly Cloudy Mostly Cloudy Mostly Cloudy Cloudy Cloudy Cloudy Mostly Cloudy
70°F21°C 69°F21°C 67°F19°C 66°F19°C 64°F18°C 62°F17°C 60°F16°C 57°F14°C 55°F13°C 52°F11°C 51°F11°C 49°F9°C 48°F9°C 47°F8°C 45°F7°C 44°F7°C 46°F8°C 47°F8°C 49°F9°C 52°F11°C 54°F12°C 57°F14°C 58°F14°C 58°F14°C 59°F15°C 57°F14°C 56°F13°C 54°F12°C 53°F12°C 51°F11°C 50°F10°C 49°F9°C 48°F9°C 47°F8°C 47°F8°C 46°F8°C
- - - - - - - - - - - - - - - - - - - - - - - - - - - - - - - - - - - -
0% 0% 0% 0% 0% 0% 0% 0% 0% 0% 0% 0% 0% 0% 0% 0% 2% 2% 2% 2% 2% 2% 12% 12% 12% 12% 12% 12% 0% 0% 0% 0% 0% 0% 5% 5%
36°F2°C 37°F3°C 37°F3°C 38°F3°C 39°F4°C 40°F4°C 41°F5°C 40°F4°C 40°F4°C 39°F4°C 39°F4°C 38°F3°C 38°F3°C 38°F3°C 37°F3°C 37°F3°C 37°F3°C 38°F3°C 38°F3°C 38°F3°C 39°F4°C 39°F4°C 39°F4°C 38°F3°C 38°F3°C 38°F3°C 39°F4°C 39°F4°C 39°F4°C 40°F4°C 40°F4°C 40°F4°C 40°F4°C 40°F4°C 40°F4°C 40°F4°C
29% 31% 33% 36% 40% 44% 49% 53% 57% 61% 63% 66% 68% 71% 73% 76% 71% 71% 66% 59% 57% 51% 49% 47% 46% 49% 53% 57% 59% 66% 68% 71% 74% 76% 76% 79%
SSW SSW SSW SSW SSW SSW SSW WNW NW N SSW SE NNE NE NE NE NE NE NE NE NE NE ENE E SE SE ESE ESE SE SSE S S S S S SSE
7 mph 7 mph 3 mph 3 mph 3 mph 3 mph 3 mph 3 mph 2 mph 2 mph 2 mph 3 mph 3 mph 3 mph 3 mph 3 mph 3 mph 4 mph 4 mph 4 mph 4 mph 4 mph 4 mph 4 mph 4 mph 4 mph 2 mph 2 mph 2 mph 3 mph 3 mph 3 mph 3 mph 3 mph 3 mph 4 mph
10 mi16 km 10 mi16 km 10 mi16 km 10 mi16 km 10 mi16 km 10 mi16 km 10 mi16 km 10 mi16 km 10 mi16 km 10 mi16 km 10 mi16 km 10 mi16 km 10 mi16 km 10 mi16 km 10 mi16 km 10 mi16 km 10 mi16 km 10 mi16 km 10 mi16 km 10 mi16 km 10 mi16 km 10 mi16 km 10 mi16 km 10 mi16 km 10 mi16 km 10 mi16 km 10 mi16 km 10 mi16 km 10 mi16 km 10 mi16 km 10 mi16 km 10 mi16 km 10 mi16 km 10 mi16 km 10 mi16 km 10 mi16 km
Hour (CST)
Weather
Clouds
Temperature
Precip. Type
POP
Dewpoint
Humidity
Wind Direction
Wind Speed
Visibility
POP = Probability of Precipitation. ** Indicates missing data/values from model statistics.

24 Hour Forecast

Rest of Today - Sunny. Highs in the upper 60s. Southwest winds around 10 mph.
Tonight - Clear. Lows around 40. West winds around 10 mph in the evening becoming light and variable.

48 Hour Forecast API Feed


Mon, Nov 29
3:00 pm

Mon, Nov 29
4:00 pm

Mon, Nov 29
5:00 pm

Mon, Nov 29
6:00 pm

Mon, Nov 29
7:00 pm

Mon, Nov 29
8:00 pm

Mon, Nov 29
9:00 pm

Mon, Nov 29
10:00 pm

Mon, Nov 29
11:00 pm

Tue, Nov 30
Midnight

Tue, Nov 30
1:00 am

Tue, Nov 30
2:00 am

Tue, Nov 30
3:00 am

Tue, Nov 30
4:00 am

Tue, Nov 30
5:00 am

Tue, Nov 30
6:00 am

Tue, Nov 30
7:00 am

Tue, Nov 30
8:00 am

Tue, Nov 30
9:00 am

Tue, Nov 30
10:00 am

Tue, Nov 30
11:00 am

Tue, Nov 30
Noon

Tue, Nov 30
1:00 pm

Tue, Nov 30
2:00 pm

Tue, Nov 30
3:00 pm

Tue, Nov 30
4:00 pm

Tue, Nov 30
5:00 pm

Tue, Nov 30
6:00 pm

Tue, Nov 30
7:00 pm

Tue, Nov 30
8:00 pm

Tue, Nov 30
9:00 pm

Tue, Nov 30
10:00 pm

Tue, Nov 30
11:00 pm

Wed, Dec 1
Midnight

Wed, Dec 1
1:00 am

Wed, Dec 1
2:00 am

Wed, Dec 1
3:00 am

Wed, Dec 1
4:00 am

Wed, Dec 1
5:00 am

Wed, Dec 1
6:00 am

Wed, Dec 1
7:00 am

Wed, Dec 1
8:00 am

Wed, Dec 1
9:00 am

Wed, Dec 1
10:00 am

Wed, Dec 1
11:00 am

Wed, Dec 1
Noon

Wed, Dec 1
1:00 pm

Wed, Dec 1
2:00 pm
SunnySunnyClearClearClearClearClearClearClearClearClearClearClearClearPartly CloudyCloudyClearCloudyCloudyOvercastOvercastOvercastCloudyOvercastOvercastSunnyClearClearClearClearClearClearPartly CloudyCloudyPartly CloudyCloudyOvercastOvercastClearClearClearSunnySunnySunnySunnySunnySunnyOvercast
Sunny Sunny Clear Clear Clear Clear Clear Clear Clear Clear Clear Clear Clear Clear Partly cloudy Cloudy Clear Cloudy Cloudy Overcast Overcast Overcast Cloudy Overcast Overcast Sunny Clear Clear Clear Clear Clear Clear Partly cloudy Cloudy Partly cloudy Cloudy Overcast Overcast Clear Clear Clear Sunny Sunny Sunny Sunny Sunny Sunny Overcast
70°F
21°C
71°F
22°C
64°F
18°C
57°F
14°C
56°F
13°C
54°F
12°C
53°F
12°C
52°F
11°C
51°F
11°C
50°F
10°C
49°F
10°C
48°F
9°C
47°F
8°C
46°F
8°C
45°F
7°C
45°F
7°C
45°F
7°C
44°F
7°C
46°F
8°C
49°F
9°C
51°F
11°C
52°F
11°C
53°F
12°C
53°F
12°C
53°F
12°C
55°F
13°C
54°F
12°C
49°F
10°C
47°F
8°C
45°F
7°C
44°F
7°C
44°F
7°C
45°F
7°C
45°F
7°C
46°F
8°C
46°F
8°C
46°F
8°C
46°F
8°C
46°F
8°C
44°F
7°C
43°F
6°C
43°F
6°C
44°F
7°C
50°F
10°C
54°F
12°C
60°F
15°C
62°F
17°C
62°F
17°C
40°F
4°C
42°F
6°C
40°F
5°C
37°F
3°C
37°F
3°C
37°F
3°C
37°F
3°C
37°F
3°C
37°F
3°C
37°F
3°C
37°F
3°C
37°F
3°C
37°F
3°C
36°F
2°C
36°F
2°C
36°F
2°C
36°F
2°C
36°F
2°C
37°F
3°C
39°F
4°C
38°F
4°C
38°F
3°C
38°F
3°C
38°F
3°C
38°F
3°C
38°F
4°C
39°F
4°C
38°F
3°C
38°F
3°C
37°F
3°C
38°F
3°C
39°F
4°C
41°F
5°C
42°F
6°C
43°F
6°C
42°F
6°C
42°F
5°C
41°F
5°C
40°F
5°C
40°F
4°C
39°F
4°C
39°F
4°C
38°F
3°C
39°F
4°C
38°F
3°C
39°F
4°C
38°F
3°C
36°F
2°C
29.85 in
1011 mb
29.85 in
1011 mb
29.85 in
1011 mb
29.88 in
1012 mb
29.88 in
1012 mb
29.91 in
1013 mb
29.94 in
1014 mb
29.94 in
1014 mb
29.97 in
1015 mb
29.97 in
1015 mb
30 in
1016 mb
30 in
1016 mb
30.03 in
1017 mb
30.03 in
1017 mb
30.03 in
1017 mb
30.06 in
1018 mb
30.06 in
1018 mb
30.09 in
1019 mb
30.12 in
1020 mb
30.15 in
1021 mb
30.15 in
1021 mb
30.18 in
1022 mb
30.15 in
1021 mb
30.12 in
1020 mb
30.12 in
1020 mb
30.09 in
1019 mb
30.06 in
1018 mb
30.06 in
1018 mb
30.06 in
1018 mb
30.06 in
1018 mb
30.06 in
1018 mb
30.06 in
1018 mb
30.06 in
1018 mb
30.03 in
1017 mb
30 in
1016 mb
30 in
1016 mb
29.97 in
1015 mb
29.94 in
1014 mb
29.94 in
1014 mb
29.94 in
1014 mb
29.94 in
1014 mb
29.97 in
1015 mb
30 in
1016 mb
30 in
1016 mb
29.97 in
1015 mb
30 in
1016 mb
30 in
1016 mb
29.97 in
1015 mb
33%35%42%47%50%52%54%56%58%60%62%64%66%68%70%72%72%73%72%68%62%59%56%56%55%54%57%65%70%74%78%83%87%91%89%87%85%81%81%85%86%85%79%66%54%46%40%37%
WSWWSWWSWWSWWSWWWWNWWNWNNWNNNNENNENNENENENEENENENEENENEESEESESEESEESESSSSWSSWSWSWSWSWSSWSWSWWSWWSWWNWNWNWNWNWWNW
11 mph
18 km/h
9 mph
14 km/h
7 mph
11 km/h
8 mph
12 km/h
8 mph
12 km/h
8 mph
12 km/h
7 mph
11 km/h
6 mph
10 km/h
6 mph
10 km/h
6 mph
9 km/h
6 mph
10 km/h
6 mph
10 km/h
5 mph
9 km/h
5 mph
8 km/h
6 mph
9 km/h
5 mph
9 km/h
6 mph
9 km/h
6 mph
9 km/h
6 mph
9 km/h
6 mph
10 km/h
6 mph
10 km/h
5 mph
8 km/h
3 mph
5 km/h
3 mph
4 km/h
2 mph
4 km/h
4 mph
7 km/h
5 mph
8 km/h
4 mph
7 km/h
3 mph
5 km/h
4 mph
6 km/h
5 mph
8 km/h
4 mph
7 km/h
5 mph
8 km/h
4 mph
6 km/h
4 mph
6 km/h
4 mph
7 km/h
6 mph
10 km/h
6 mph
10 km/h
6 mph
10 km/h
7 mph
12 km/h
7 mph
12 km/h
7 mph
12 km/h
9 mph
15 km/h
8 mph
13 km/h
8 mph
13 km/h
9 mph
15 km/h
10 mph
15 km/h
10 mph
16 km/h
0%0%0%0%0%0%0%0%0%0%0%0%0%0%0%0%0%0%0%0%0%0%0%0%0%0%0%0%0%0%0%0%0%0%0%0%0%0%0%0%0%0%0%0%0%0%0%0%
6 mi
10 km
6 mi
10 km
6 mi
10 km
6 mi
10 km
6 mi
10 km
6 mi
10 km
6 mi
10 km
6 mi
10 km
6 mi
10 km
6 mi
10 km
6 mi
10 km
6 mi
10 km
6 mi
10 km
6 mi
10 km
6 mi
10 km
6 mi
10 km
6 mi
10 km
6 mi
10 km
6 mi
10 km
6 mi
10 km
6 mi
10 km
6 mi
10 km
6 mi
10 km
6 mi
10 km
6 mi
10 km
6 mi
10 km
6 mi
10 km
6 mi
10 km
6 mi
10 km
6 mi
10 km
6 mi
10 km
6 mi
10 km
6 mi
10 km
6 mi
10 km
6 mi
10 km
6 mi
10 km
6 mi
10 km
6 mi
10 km
6 mi
10 km
6 mi
10 km
6 mi
10 km
6 mi
10 km
6 mi
10 km
6 mi
10 km
6 mi
10 km
6 mi
10 km
6 mi
10 km
6 mi
10 km

Day/Time
Weather
Condition
Temperature
Dew Point
Pressure
Humidity
Wind Direction
Wind Speed
Prob Precip %
Visibility
Prob Precip % = Probability of Precipitation.